TimeCST,TemperatureF,Dew PointF,Humidity,Sea Level PressureIn,VisibilityMPH,Wind Direction,Wind SpeedMPH,Gust SpeedMPH,PrecipitationIn,Events,Conditions,WindDirDegrees,DateUTC
12:53 AM,32.0,26.1,79,29.86,6.0,North,12.7,-,0.00,,Haze,350,2013-02-26 06:53:00
1:53 AM,30.9,26.1,82,29.86,6.0,North,15.0,-,0.00,,Haze,350,2013-02-26 07:53:00
2:12 AM,30.2,26.6,86,29.82,6.0,NNW,11.5,-,N/A,,Haze,330,2013-02-26 08:12:00
2:53 AM,30.0,25.0,82,29.85,4.0,NW,13.8,-,0.00,Snow,Light Snow,320,2013-02-26 08:53:00
3:04 AM,30.2,24.8,80,29.81,4.0,NW,13.8,-,0.00,Snow,Light Snow,320,2013-02-26 09:04:00
3:53 AM,30.0,25.0,82,29.83,5.0,NNW,13.8,-,0.00,,Haze,330,2013-02-26 09:53:00
4:53 AM,30.0,24.1,79,29.82,6.0,NNW,15.0,-,N/A,,Haze,340,2013-02-26 10:53:00
5:53 AM,28.9,24.1,82,29.81,6.0,NNW,15.0,-,0.00,,Haze,340,2013-02-26 11:53:00
6:53 AM,27.0,23.0,85,29.81,6.0,NNW,17.3,-,N/A,,Overcast,330,2013-02-26 12:53:00
7:53 AM,27.0,23.0,85,29.82,3.0,NNW,19.6,-,0.00,Snow,Light Snow,330,2013-02-26 13:53:00
8:53 AM,28.0,23.0,81,29.84,3.0,NNW,21.9,-,0.00,Snow,Light Snow,330,2013-02-26 14:53:00
9:53 AM,28.9,23.0,78,29.86,4.0,NNW,19.6,-,0.00,Snow,Light Snow,330,2013-02-26 15:53:00
10:53 AM,30.0,23.0,75,29.85,4.0,North,19.6,-,0.00,,Haze,360,2013-02-26 16:53:00
11:53 AM,32.0,25.0,75,29.84,5.0,NNW,16.1,-,0.02,,Haze,340,2013-02-26 17:53:00
12:53 PM,34.0,26.1,73,29.84,6.0,NW,15.0,-,N/A,,Haze,320,2013-02-26 18:53:00
1:23 PM,33.8,24.8,70,29.80,6.0,NW,19.6,-,N/A,,Haze,320,2013-02-26 19:23:00
1:53 PM,33.1,25.0,72,29.83,6.0,NNW,19.6,-,0.00,,Haze,340,2013-02-26 19:53:00
1:56 PM,33.8,24.8,70,29.79,6.0,NNW,17.3,-,N/A,,Haze,340,2013-02-26 19:56:00
2:53 PM,34.0,25.0,70,29.81,6.0,NNW,16.1,-,N/A,,Haze,330,2013-02-26 20:53:00
3:53 PM,35.1,26.1,70,29.83,6.0,NNW,15.0,-,N/A,,Haze,330,2013-02-26 21:53:00
4:53 PM,34.0,26.1,73,29.85,6.0,NNW,12.7,-,0.00,,Haze,340,2013-02-26 22:53:00
5:53 PM,33.1,26.1,75,29.88,6.0,NNW,12.7,-,N/A,,Haze,340,2013-02-26 23:53:00
6:53 PM,33.1,26.1,75,29.91,6.0,NNW,15.0,-,N/A,,Haze,340,2013-02-27 00:53:00
7:39 PM,32.0,26.6,80,29.90,3.0,NW,13.8,-,0.00,Snow,Light Snow,320,2013-02-27 01:39:00
7:53 PM,32.0,27.0,82,29.94,3.0,NW,12.7,-,0.00,Snow,Light Snow,320,2013-02-27 01:53:00
8:35 PM,32.0,26.6,80,29.92,2.5,NW,12.7,-,0.00,Snow,Light Snow,320,2013-02-27 02:35:00
8:53 PM,30.9,27.0,85,29.96,2.5,NNW,13.8,-,0.00,Snow,Light Snow,330,2013-02-27 02:53:00
9:53 PM,30.9,28.0,89,29.98,2.5,NNW,12.7,-,0.00,Snow,Light Snow,330,2013-02-27 03:53:00
10:20 PM,30.2,28.4,93,29.94,1.8,NNW,13.8,-,0.00,Snow,Light Snow,340,2013-02-27 04:20:00
10:29 PM,30.2,28.4,93,29.94,1.8,NNW,12.7,-,0.00,Snow,Light Snow,340,2013-02-27 04:29:00
10:40 PM,30.2,28.4,93,29.94,2.0,NNW,12.7,-,0.00,Snow,Light Snow,340,2013-02-27 04:40:00
10:53 PM,30.9,28.0,89,29.98,2.0,NNW,12.7,-,0.00,Snow,Light Snow,340,2013-02-27 04:53:00
11:01 PM,30.2,28.4,93,29.94,1.8,NNW,13.8,-,0.00,Snow,Light Snow,330,2013-02-27 05:01:00
11:32 PM,30.2,26.6,86,29.94,1.8,NNW,10.4,-,0.00,Snow,Light Snow,340,2013-02-27 05:32:00
11:49 PM,30.2,26.6,86,29.94,2.0,NNW,12.7,-,0.00,,Overcast,330,2013-02-27 05:49:00
11:53 PM,30.0,27.0,88,29.98,2.0,NNW,11.5,-,0.00,,Overcast,330,2013-02-27 05:53:00